Loisir ou Compétition : Rejoignez un Club de la Fédération

Résultats

GRAND PRIX de SKI de FOND

CHAMONIX

MA--S Mixte

Jury de Compétition

Délégué Technique :
MINARY JEAN PAUL (SA)
D.T. Adjoint :
 
Dir. Epreuve :
TARANTOLA LIONEL (MB)

Caractéristiques de la Piste

Piste :
PISTE LES PRAZ
Distance :
 
Point Haut :
 
Point Bas :
 
Montée Tot. :
 
Montée Max. :
 
Homologation :
520020132

Pénalité Appliquée :
 
Coefficient :
 

Catégorie :
*
Style :
C

25/01/04 - FMBT0071

CltDosClt/CatCodeAnNom PrénomComClubTempsEcartPoints
11731/BENFFS22942811992VERNEY CHARLYMBSC GD BORNAN13:50.600:00.0
21502/BENFFS26019601992GRENIER CLEMENTMBCS ARGENTIER13:54.500:03.9
31211/BENFFS26140701992ANSELMO CINDELLMBCS CHAMONIX14:47.300:56.7
41583/BENFFS23245301992AGNELLET GERARDMBCS LA CLUSAZ14:49.600:59.0
51412/BENFFS26132111992HUDRY CLERGEON GAELLEMBSC GD BORNAN14:57.101:06.5
61554/BENFFS26140661992VOUILLAMOZ SYLVAINMBCS CHAMONIX14:58.101:07.5
71545/BENFFS26140641992DUPERREX LUCASMBCS CHAMONIX14:59.501:08.9
81646/BENFFS26169381992COUDURIER JULIENMBNORD.TANINGE15:04.501:13.9
91567/BENFFS26140691992CLAUDON MAXIMEMBCS CHAMONIX15:09.401:18.8
101788/BENFFS26155361992PRONNIER DAMIENMBSC GD BORNAN15:09.801:19.2
111529/BENFFS26140671992GEORGE SAMUELMBCS CHAMONIX15:12.601:22.0
1218010/BENFFS26164611992REYNARD BASTIENMBSCNP ROCHOIS15:13.801:23.2
1318111/BENFFS26164491992LAPHIN ALEXISMBSCNP ROCHOIS15:16.301:25.7
1417612/BENFFS26132161992PESSEY OSCARMBSC GD BORNAN15:16.701:26.1
151303/BENFFS23235591992MARIN SOPHIEMBCS MEGEVE15:26.801:36.2
161244/BENFFS26140771992POCCARD CHAPPUIS LAETITIAMBCS CHAMONIX15:28.101:37.5
1717713/BENFFS26132121992MISSILLIER QUENTINMBSC GD BORNAN15:30.701:40.1
181285/BENFFS23245341992COLLOMB GROS CLEMENCEMBCS LA CLUSAZ15:33.701:43.1
1917514/BENFFS26132131992PERRILLAT LUCMBSC GD BORNAN15:57.302:06.7
2016915/BENFFS23535231992MATTEL GERALDMBSC CONTAMINE16:26.002:35.4
2115116/BENFFS22626221992GOUJON ANTOINEMBCS CHAMONIX16:27.002:36.4
2216317/BENFFS26169341992ROBILLARD MAXENCEMBNORD.TANINGE16:30.502:39.9
2316618/BENFFS23519491992BRUAND GUILLAUMEMBSALLANCHES16:32.102:41.5
241256/BENFFS26140751992RONCO LISAMBCS CHAMONIX16:33.802:43.2
2518219/BENFFS23538891992JACOB ValentinMBSCNP ROCHOIS16:34.302:43.7
261227/BENFFS26140761992CEFALI AUROREMBCS CHAMONIX16:34.802:44.2
271298/BENFFS26134781992Gachet LorineMBCS MEGEVE16:36.602:46.0
2816520/BENFFS26169391992ROUGE ANTHONINMBNORD.TANINGE16:38.002:47.4
2916221/BENFFS26155481992AMOUDRUZ ANTHONYMBNORD.TANINGE16:43.102:52.5
3017222/BENFFS26134321992MENOLI JONATHANMBSC D'AGY16:46.802:56.2
311209/BENFFS26140711992REGNARD OCEANEMBCS CHAMONIX16:57.103:06.5
3215323/BENFFS26140651992PELLE GUILLAUMEMBCS CHAMONIX16:57.403:06.8
3314010/BENFFS26132151992PESSEY IRISMBSC GD BORNAN16:58.103:07.5
3416724/BENFFS23236071992BOUCHARD SIMONMBSALLANCHES17:02.003:11.4
3512311/BENFFS26140741992DEPIGNY SARAHMBCS CHAMONIX17:06.403:15.8
3613212/BENFFS26060051992ANTHONIOZ DOROTHEEMBLES GETS S.C17:19.803:29.2
3712713/BENFFS23245311992GOY ROSALIEMBCS LA CLUSAZ17:19.903:29.3
3817925/BENFFS26164691992LEBLONDEL MATHIEUMBSCNP ROCHOIS17:21.403:30.8
3915926/BENFFS23235571992BEDOUET ANSELMEMBCS MEGEVE17:26.303:35.7
4013314/BENFFS22936271992BOSCHAT MARYNEMBLES HOUCHES17:28.203:37.6
4113815/BENFFS23538141992PETIT ELODIEMBSC D'AGY17:28.703:38.1
4213116/BENFFS26060061992COPPEL CELIAMBLES GETS S.C17:30.303:39.7
4318527/BENFFS26132851992COSTAZ REMIMBVILLARD/BOEG17:43.803:53.2
4413617/BENFFS23240931992MARTIN CHARLAINEMBSC CONTAMINE17:45.803:55.2
4513518/BENFFS23536221992CHESNEY SANDRAMBSALLANCHES17:46.503:55.9
4612619/BENFFS23245871992AGNELLET LISEMBCS LA CLUSAZ17:52.504:01.9
4716028/BENFFS26047311992DEWAELE ROMAINMBLES GETS S.C18:05.904:15.3
4814520/BENFFS26173391992HUMBERT SARAHMBVILLARD/BOEG18:06.004:15.4
492511/MINFFS22291381990GAILLARD VALENTINMBSC GD BORNAN18:08.804:18.2
502572/MINFFS23535611990AVRILLON NICOLASMBSC GD BORNAN18:15.504:24.9
512333/MINFFS23542011990AUTHEMANN ANTOINEMBCS CHAMONIX18:16.004:25.4
522584/MINFFS23191451990BARTHELEMY THIBAUDMBSCNP ROCHOIS18:22.404:31.8
5314421/BENFFS26165081992CARIALOTTO MAELLEMBSC MIEUSSY18:34.104:43.5
542565/MINFFS26053531990ROISINE THEOMBSC GD BORNAN18:45.704:55.1
5513722/BENFFS26134301992BURGISSER SUZILOUMBSC D'AGY18:51.605:01.0
562316/MINFFS23541911990RAVENEAU GEOFFROYMBCS CHAMONIX19:00.405:09.8
572307/MINFFS23541961990BURET ADRIENMBCS CHAMONIX19:09.805:19.2
5813923/BENFFS26135711992FELLOUSE CHARLOTTEMBSC D'AGY19:14.005:23.4
5914224/BENFFS26165091992OTHMAN ANAISMBSC MIEUSSY19:22.805:32.2
6017129/BENFFS26134311992GERDIL ALEXISMBSC D'AGY19:26.605:36.0
612558/MINFFS23535501990TRESSE VINCENTMBSC GD BORNAN19:40.305:49.7
622349/MINFFS23538941990MOIA MARCOMBCS CHAMONIX19:48.205:57.6
6325010/MINFFS22623821990MANIFICAT ALEXISMBSC D'AGY19:48.905:58.3
6422811/MINFFS26009871991TARANTOLA DAMIENMBCS CHAMONIX19:55.206:04.6
652141/MINFFS26152451990VAN POUCKE GWENAELLEMBSC GD BORNAN20:18.306:27.7
6618330/BENFFS26136591992BONNET DIMITRIMBVILLARD/BOEG20:20.906:30.3
6723512/MINFFS26009321991DE CHARDON NIELSMBCS CHAMONIX20:21.906:31.3
6823713/MINFFS23541931990CAPLAN XAVIERMBCS CHAMONIX20:22.206:31.6
692122/MINFFS23544061990GOBERT CYPRILLEMBSC GD BORNAN20:24.406:33.8
7025314/MINFFS26026151991LEGON MICKAELMBSC GD BORNAN20:27.106:36.5
7113425/BENFFS26155511992ROY MARGOTMBNORD.TANINGE20:28.806:38.2
721933/MINFFS23541981990VENOT LUCIEMBCS CHAMONIX20:42.406:51.8
732154/MINFFS26047701991PERRILLAT MAUREENMBSC GD BORNAN20:45.106:54.5
742135/MINFFS26027601991FAVRE MATHILDEMBSC GD BORNAN20:46.006:55.4
7523215/MINFFS23541901990DUPERREX THEOMBCS CHAMONIX20:46.606:56.0
7626016/MINFFS26043751991LAVERRIERE MICKAELMBSCNP ROCHOIS20:51.907:01.3
772016/MINFFS23538431990GUILLERMIN CAPUCINEMBDRAGONS ANNY20:55.207:04.6
7822917/MINFFS26177161990HAMOUMRAOUI BERTRANDMBCS CHAMONIX20:57.807:07.2
7926218/MINFFS26033681991CULAT QUENTINMBSCNP ROCHOIS21:02.707:12.1
801957/MINFFS26009841991KEMPF CLEMENCEMBCS CHAMONIX21:07.107:16.5
812168/MINFFS23535621990MISSILLIER GAELLEMBSC GD BORNAN21:10.407:19.8
8222619/MINFFS23541951990MATTEUDI LOUISMBCS CHAMONIX21:17.607:27.0
832099/MINFFS23544051990REY LAURENCEMBSC GD BORNAN21:19.707:29.1
8421110/MINFFS22622001991PERRILLAT AMEDEE LYDIEMBSC GD BORNAN21:21.107:30.5
8519111/MINFFS26008961991JOLIVET MARINEMBCS CHAMONIX21:21.407:30.8
8624020/MINFFS21960371990GALLAY WILLIAMMBCS LA CLUSAZ21:33.507:42.9
8726321/MINFFS22941631990CALLIARI BAPTISTEMBVILLARD/BOEG21:41.007:50.4
8820412/MINFFS26016141990VIGNERON FLORIEMBSALLANCHES21:47.207:56.6
8924222/MINFFS23545561991DAYEZ MARCMBDRAGONS ANNY21:57.208:06.6
9024123/MINFFS26006721990VICARINI REMYMBCS MEGEVE22:08.808:18.2
9121713/MINFFS23537821990MOUILLESEAUX LUCILEMBSC MIEUSSY22:09.708:19.1
9226424/MINFFS26011321991GUIGONNAT ANTHONINMBVILLARD/BOEG22:13.608:23.0
9319014/MINFFS26011861991STOLL CHLOEMBCS CHAMONIX22:15.308:24.7
9425425/MINFFS26026141991FOURNIER CYRILMBSC GD BORNAN22:17.208:26.6
9520315/MINFFS23234471991GATTINI VERANEMBLES HOUCHES22:17.908:27.3
9624926/MINFFS26137281991DEVIGNY QUENTINMBSC D'AGY22:18.108:27.5
9726627/MINFFS23540391990COSTAZ MAXIMEMBVILLARD/BOEG22:19.108:28.5
9823928/MINFFS23234091991SPOSATO MATHIEUMBCS CHAMONIX22:29.008:38.4
9925229/MINFFS26042241991VULLIET JEREMYMBSC GD BORNAN22:32.208:41.6
10022730/MINFFS26009311991DAMILANO MARIUSMBCS CHAMONIX22:36.108:45.5
10120216/MINFFS26157601991ABRY DELPHINEMBDRAGONS ANNY22:42.508:51.9
10220017/MINFFS26029281991CHOLLOUX SARAHMBDRAGONS ANNY22:45.208:54.6
10323831/MINFFS26009281991BOILLOT VICTORMBCS CHAMONIX22:45.808:55.2
10419418/MINFFS26036541991AMOUDRUZ MELODYMBCS CHAMONIX22:50.308:59.7
10519819/MINFFS23541971990BAZIN MAUDMBCS CHAMONIX22:53.709:03.1
10614326/BENFFS26165121992CHAVANNE MARIEMBSC MIEUSSY22:53.809:03.2
10724532/MINFFS23536251990MOREL ALEXISMBSALLANCHES23:00.009:09.4
10822120/MINFFS23540351990PASTORE SANDRAMBVILLARD/BOEG23:19.509:28.9
10919221/MINFFS23541881990MOTTIN JUSTINEMBCS CHAMONIX23:34.409:43.8
11019622/MINFFS26009301991COUTTET JULIAMBCS CHAMONIX23:35.409:44.8
11124733/MINFFS26141301991ZARIFIAU JEAN CHARLESMBSALLANCHES24:01.510:10.9
11226534/MINFFS26011221990BONNET ALEXISMBVILLARD/BOEG24:03.010:12.4
11321823/MINFFS23537851990MATRICON SOPHIEMBSC MIEUSSY24:11.310:20.7
11424335/MINFFS23538811991KOEGLER ALIXMBLES GETS S.C24:20.510:29.9
11524436/MINFFS23240711991REY ALEXISMBSALLANCHES24:21.210:30.6
11624637/MINFFS26013191991LACOURT VINCENTMBSALLANCHES24:38.710:48.1
11719924/MINFFS23544621991MABBOUX ElodieMBCS MEGEVE24:41.810:51.2
11819725/MINFFS26009861991PELISSIER ALICEMBCS CHAMONIX24:47.810:57.2
11920726/MINFFS22630291991NONGLATON MARIONMBSC D'AGY25:20.011:29.4
12021927/MINFFS23537841990DEMIERRE MARYLINEMBSC MIEUSSY25:27.811:37.2
12122228/MINFFS26011261991COSTAZ HEIDIMBVILLARD/BOEG26:25.912:35.3
12220829/MINFFS26055291991BURGISSER MAYAMBSC D'AGY26:38.012:47.4
12324838/MINFFS26135721991KIELWASSER BENJAMINMBSC D'AGY28:47.614:57.0
12422030/MINFFS23545121990OTHMANN NOEMIEMBSC MIEUSSY29:22.615:32.0
Abandons
157FFS26140681992TRICHET VICTORMBCS CHAMONIX
170FFS26175761992SORRIAUX ALLANMBSC CONTAMINE
Non partants
161FFS23240351992SIMKO PABLOMBLES HOUCHES
168FFS26141321992NICOLAS MAXIMEMBSALLANCHES
174FFS26132101992BASTARD ANTHONYMBSC GD BORNAN
184FFS26173401992RUIZ NICOLASMBVILLARD/BOEG
205FFS22941461990EINHORN LEAMBSC CONTAMINE
206FFS23236051990PERNIN EMILIEMBSC CONTAMINE
210FFS26020841991PERRILLAT NOEMIEMBSC GD BORNAN
225FFS26009351991GUYON ARNAUDMBCS CHAMONIX
236FFS26009271991AUDOUIT ROMAINMBCS CHAMONIX
259FFS26043731991THABUIS KEVINMBSCNP ROCHOIS
261FFS26033661991LAPHIN LOICMBSCNP ROCHOIS